Location: Austin
(30.3000°N, 97.7500°W)
Time: 10:25:56
(UTC-05:00)

SL-16 R/B - Pass Details

Date: 03 April 2024
Orbit: 842 x 845 km, 71.0° (Epoch: 21 April)

Event Time Altitude Azimuth Distance (km) Brightness Sun altitude
Exits shadow 04:59:07 16° 334° (NNW) 2,084 4.2 -29.3°
Drops below altitude 10° 05:00:43 10° 347° (NNW) 2,466 4.8 -29.0°
Sets 05:03:47 0° 3° (N) 3,405 5.7 -28.4°
